Regional Weather Roundup
Issued by NWS Kansas City/Pleasant Hill, MO

Home | Current Version | Previous Version | Text Only | Print | Product List | Glossary On
Versions: 1 2 3 4 5 6 7 8 9 10 11 12 13 14 15 16 17 18 19 20 21 22 23 24 25 26 27 28 29 30 31 32 33 34 35 36 37 38 39 40 41 42 43 44 45 46 47 48 49 50
000
ASUS43 KEAX 270810
RWREAX

WEATHER ROUNDUP FOR EASTERN KANSAS AND NORTHWEST MISSOURI
NATIONAL WEATHER SERVICE KANSAS CITY/PLEASANT HILL MO
300 AM CDT WED MAY 27 2015

KSZ040-057-103>105-MOZ028-029-037-043-270900-
...KANSAS CITY METROPOLITAN AREA...

CITY           SKY/WX    TMP DP  RH WIND       PRES   REMARKS
K.C. INTL      CLEAR     61  55  81 W5        29.97R
K.C. DOWNTOWN  CLEAR     65  56  72 SW5       29.97R
LEES SUMMIT    PTCLDY    63  60  90 W5        29.97S
OLATHE - IXD   CLEAR     61  59  93 W3        29.99R
OLATHE - OJC   CLEAR     62  60  93 W3        29.97R
LAWRENCE       CLEAR     58  56  93 NW3       29.98R

$$

MOZ001>008-011>017-020>025-030>033-038>040-044>046-053-054-270900-
...NORTHERN AND CENTRAL MISSOURI...

CITY           SKY/WX    TMP DP  RH WIND       PRES   REMARKS
ST. JOSEPH     CLEAR     59  55  87 NW6       29.96S
MOSBY          MOSUNNY   61  57  88 CALM      29.96R
WARRENSBURG    PTCLDY    64  63  94 SW7       29.96R
WHITEMAN AFB   PTCLDY    67  63  87 W7        29.95R
CLINTON        PTCLDY    64  63  94 CALM      29.97R
SEDALIA        CLEAR     66  61  84 SW7       29.97R
WARSAW         NOT AVBL
CHILLICOTHE      N/A     60  58  92 CALM      29.96R
KIRKSVILLE     PTCLDY    62  60  93 SW3       29.94R

$$

MOZ041-047>049-056>058-063>065-088>090-097-270900-
...EASTERN AND SOUTHERN MISSOURI...

CITY           SKY/WX    TMP DP  RH WIND       PRES   REMARKS
ST. LOUIS INTL PTCLDY    71  61  70 S10       29.98S
SPIRIT OF STL  PTCLDY   N/A N/A N/A SW3       29.97R
COLUMBIA       CLEAR     65  61  87 W5        29.96S
JEFFERSON CITY PTCLDY    65  61  87 E5        29.96S
ROLLA          MOCLDY    64  62  93 S9        29.99R
OSAGE BEACH    MOCLDY    63  61  94 S3        29.99R THUNDER
SPRINGFIELD    CLOUDY    67  62  84 S12       29.97F
BRANSON        CLOUDY    66  64  94 CALM      30.02F
JOPLIN         CLOUDY    68  65  90 SW12      29.98F THUNDER
WEST PLAINS    MOCLDY    66  63  90 S5        30.04F

$$

IAZ060-094-KSZ022-034>040-054-083-096-NEZ052-066-093-270900-
...KANSAS...SOUTHEAST NEBRASKA AND IOWA...

CITY           SKY/WX    TMP DP  RH WIND       PRES   REMARKS
TOPEKA         PTCLDY    60  59  96 W5        29.99R
MANHATTAN      PTCLDY    57  55  93 CALM      30.00R
EMPORIA        CLEAR     60  57  89 CALM      30.00R
CHANUTE        PTCLDY    63  62  97 S7        29.99R
WICHITA        CLEAR     63  60  90 N6        30.00R
OMAHA          CLEAR     56  53  90 CALM      29.94S
LINCOLN        CLEAR     57  51  80 CALM      29.99R
FALLS CITY     CLEAR     58  54  86 W7        29.97R
LAMONI         CLEAR     61  56  83 W12       29.93R
DES MOINES     CLOUDY    60  57  89 W6        29.90R

$$




USA.gov is the U.S. government's official web portal to all federal, state and local government web resources and services.